Location: Unspecified
(48.2082°N, 0.0000°E)
Time: 04:39:58
(UTC+00:00)

Courier 1B - All Passes

Search period start: 25 June 2019 00:00
Search period end: 05 July 2019 00:00
Orbit: 963 x 1209 km, 28.3° (Epoch: 23 June)

Date Brightness Start Highest point End Pass type
(mag) Time Alt. Az. Time Alt. Az. Time Alt. Az.
25 Jun - 17:45:35 10° SSW 17:48:28 13° SSE 17:51:24 10° SE daylight
25 Jun - 19:37:28 10° SW 19:41:11 15° S 19:44:58 10° SSE daylight
26 Jun - 16:53:26 10° S 16:55:02 11° SSE 16:56:39 10° SSE daylight
26 Jun - 18:44:04 10° SSW 18:47:41 15° S 18:51:23 10° SSE daylight
26 Jun - 20:38:31 10° SSW 20:40:25 11° SSW 20:42:20 10° S visible
27 Jun - 17:50:53 10° SSW 17:54:13 14° S 17:57:38 10° SSE daylight
27 Jun - 19:44:13 10° SSW 19:46:55 12° S 19:49:41 10° SSE daylight
28 Jun - 16:57:57 10° SSW 17:00:47 13° S 17:03:40 10° SSE daylight
28 Jun - 18:50:24 10° SSW 18:53:27 13° S 18:56:34 10° SSE daylight
29 Jun - 16:05:25 10° S 16:07:22 11° SSE 16:09:20 10° SSE daylight
29 Jun - 17:56:52 10° SSW 18:00:00 13° S 18:03:12 10° SSE daylight
30 Jun - 17:03:32 10° SSW 17:06:33 13° S 17:09:38 10° SSE daylight
30 Jun - 18:58:19 10° SSW 18:59:13 10° SSW 19:00:08 10° S daylight
01 Jul - 16:10:26 10° SSW 16:13:08 13° S 16:15:54 10° SSE daylight
01 Jul - 18:03:45 10° SSW 18:05:47 11° S 18:07:51 10° S daylight
02 Jul - 15:17:37 10° S 15:19:45 12° S 15:21:54 10° SSE daylight
02 Jul - 17:09:54 10° SSW 17:12:22 12° S 17:14:51 10° SSE daylight
03 Jul - 14:25:31 10° S 14:26:22 10° SSE 14:27:14 10° SSE daylight
03 Jul - 16:16:22 10° SSW 16:18:57 12° S 16:21:34 10° SSE daylight
04 Jul - 15:23:02 10° SSW 15:25:33 12° S 15:28:06 10° SSE daylight
